Weather History for Sisseton, SD

Change the Weather History Date:

Sunday, April 21, 2013

  Actual Average Record
Temperature  
Mean Temperature 35 °F 47 °F  
Max Temperature 40 °F 60 °F 99 °F (1980)
Min Temperature 30 °F 35 °F 16 °F (1936)
Degree Days  
Heating Degree Days 30 18  
Month to date heating degree days 739 478  
Since 1 July heating degree days 8567 7820  
Cooling Degree Days 0 0  
Month to date cooling degree days 0 0  
Year to date cooling degree days 0 0  
Moisture  
Dew Point 31 °F    
Average Humidity 91    
Maximum Humidity 100    
Minimum Humidity 82    
Precipitation  
Precipitation 0.16 in 0.09 in 0.74 in (2007)
Month to date precipitation 2.10 1.18  
Year to date precipitation 5.45 3.16  
Snow  
Snow 0.00 in - - ()
Month to date snowfall 17.6  
Since 1 July snowfall 59.7  
Snow Depth 6.00 in    
Sea Level Pressure  
Sea Level Pressure 30.11 in    
Wind  
Wind Speed 14 mph (SSW)    
Max Wind Speed 24 mph    
Max Gust Speed 29 mph    
T = Trace of Precipitation, MM = Missing Value Source: NWS Daily Summary

Daily Weather History Graph

Daily Weather History Graph

Search for Another Location

Airport:

Trip Planner

Search our weather history database for the weather conditions in past years. The results will help you decide how hot, cold, wet, or windy it might be!

Date:

Astronomy

Apr. 21, 2013 Rise Set
Actual Time 6:31 AM CDT 8:22 PM CDT
Civil Twilight 5:59 AM CDT 8:54 PM CDT
Nautical Twilight 5:20 AM CDT 9:33 PM CDT
Astronomical Twilight 4:38 AM CDT 10:16 PM CDT
Moon 3:57 PM CDT 4:07 AM CDT
Length of Visible Light 14h 54m
Length of Day
13h 51m
Waxing Gibbous, 80% of the Moon is Illuminated
Apr 21
Waxing Gibbous
Apr 25
Full
May 2
Last Quarter
May 9
New
May 17
First Quarter

Hourly Weather History & Observations

Time (CDT) Temp. Windchill Dew Point Humidity Pressure Visibility Wind Dir Wind Speed Gust Speed Precip Events Conditions
12:56 AM 30.9 °F 18.4 °F 28.9 °F 92% 30.20 in - South 20.7 mph - N/A   Unknown
1:56 AM 30.9 °F 18.4 °F 30.0 °F 96% 30.17 in - South 20.7 mph - N/A   Unknown
2:56 AM 32.0 °F 20.5 °F 30.9 °F 96% 30.14 in - South 18.4 mph - N/A   Unknown
3:56 AM 32.0 °F 20.8 °F 30.9 °F 96% 30.13 in - South 17.3 mph - N/A   Unknown
4:56 AM 32.0 °F 19.8 °F 30.9 °F 96% 30.11 in - South 20.7 mph 26.5 mph N/A   Unknown
5:56 AM 32.0 °F 19.8 °F 30.9 °F 96% 30.09 in - South 20.7 mph - N/A   Unknown
6:56 AM 30.9 °F 19.8 °F 30.0 °F 96% 30.07 in - South 16.1 mph - N/A   Unknown
7:56 AM 32.0 °F 22.1 °F 30.0 °F 92% 30.06 in - South 13.8 mph - N/A   Unknown
8:56 AM 33.1 °F 22.2 °F 30.0 °F 89% 30.04 in - South 17.3 mph - N/A   Unknown
9:56 AM 33.1 °F 24.4 °F 30.9 °F 92% 30.04 in - South 11.5 mph - 0.01 in   Unknown
10:56 AM 34.0 °F 26.0 °F 32.0 °F 92% 30.03 in - SSE 10.4 mph - 0.02 in   Unknown
11:56 AM 34.0 °F 28.0 °F 33.1 °F 96% 30.02 in - South 6.9 mph - 0.13 in   Unknown
12:56 PM 37.0 °F 31.0 °F 33.1 °F 86% 30.03 in - SSW 8.1 mph - N/A   Unknown
1:56 PM 37.0 °F 33.3 °F 34.0 °F 89% 30.03 in - SE 4.6 mph - N/A   Unknown
2:56 PM 39.9 °F 32.9 °F 35.1 °F 83% 30.02 in - NW 11.5 mph - N/A   Unknown
3:56 PM 37.9 °F 30.5 °F 34.0 °F 86% 30.04 in - NW 11.5 mph - N/A   Unknown
4:56 PM 37.9 °F 30.0 °F 34.0 °F 86% 30.06 in - NNW 12.7 mph - N/A   Unknown
5:56 PM 37.9 °F 28.2 °F 33.1 °F 83% 30.09 in - NNW 18.4 mph 25.3 mph N/A   Unknown
6:56 PM 37.0 °F 28.1 °F 32.0 °F 82% 30.13 in - NNW 15.0 mph - N/A   Unknown
7:56 PM 35.1 °F 24.8 °F 30.0 °F 82% 30.16 in - NNW 17.3 mph - N/A   Unknown
8:56 PM 34.0 °F 26.6 °F 30.0 °F 85% 30.19 in - NNW 9.2 mph - N/A   Unknown
9:56 PM 32.0 °F 23.0 °F 28.9 °F 88% 30.22 in - North 11.5 mph - N/A   Unknown
10:56 PM 30.9 °F 21.2 °F 27.0 °F 85% 30.24 in - North 12.7 mph - N/A   Unknown
11:56 PM 30.9 °F 19.8 °F 27.0 °F 85% 30.25 in - North 16.1 mph - N/A   Unknown